Hourly Weather Elda

Today, 4 July, Saturday

Time Temperature Precipitation Wind Pressure Humidity
00:00 +23°C° 0 mm 1 mps 727 mmHg 87%
01:00 +23°C° 0 mm 1 mps 727 mmHg 86%
02:00 +23°C° 0 mm 1 mps 727 mmHg 85%
03:00 +23°C° 0 mm 1 mps 727 mmHg 85%
04:00 +23°C° 0 mm 1 mps 727 mmHg 83%
05:00 +23°C° 0 mm 1 mps 727 mmHg 82%
06:00 +21°C° 0 mm 0 mps 727 mmHg 81%
07:00 +25°C° 0 mm 1 mps 727 mmHg 74%
08:00 +26°C° 0 mm 1 mps 727 mmHg 68%
09:00 +27°C° 0 mm 2 mps 728 mmHg 61%
10:00 +28°C° 0 mm 2 mps 728 mmHg 55%
11:00 +30°C° 0 mm 3 mps 728 mmHg 50%
12:00 +32°C° 0 mm 4 mps 728 mmHg 45%
13:00 +32°C° 0 mm 4 mps 728 mmHg 45%
14:00 +32°C° 0 mm 4 mps 727 mmHg 46%
15:00 +32°C° 0 mm 5 mps 727 mmHg 47%
16:00 +30°C° 0 mm 4 mps 727 mmHg 51%
17:00 +29°C° 0 mm 3 mps 727 mmHg 55%
18:00 +28°C° 0 mm 3 mps 726 mmHg 59%
19:00 +27°C° 0 mm 2 mps 727 mmHg 64%
20:00 +26°C° 0 mm 2 mps 727 mmHg 68%
21:00 +24°C° 0 mm 1 mps 727 mmHg 73%
22:00 +24°C° 0 mm 1 mps 727 mmHg 75%
23:00 +23°C° 0 mm 1 mps 728 mmHg 78%

Tomorrow, 5 July, Sunday

Time Temperature Precipitation Wind Pressure Humidity
00:00 +23°C° 0 mm 1 mps 728 mmHg 80%
01:00 +23°C° 0 mm 1 mps 727 mmHg 82%
02:00 +22°C° 0 mm 1 mps 727 mmHg 84%
03:00 +20°C° 0 mm 0 mps 727 mmHg 85%
04:00 +20°C° 0 mm 0 mps 727 mmHg 82%
05:00 +21°C° 0 mm 0 mps 727 mmHg 79%
06:00 +21°C° 0 mm 0 mps 727 mmHg 75%
07:00 +25°C° 0 mm 1 mps 727 mmHg 65%
08:00 +27°C° 0 mm 1 mps 727 mmHg 54%
09:00 +28°C° 0 mm 2 mps 728 mmHg 44%
10:00 +29°C° 0 mm 2 mps 728 mmHg 41%
11:00 +31°C° 0 mm 3 mps 727 mmHg 39%
12:00 +33°C° 0 mm 4 mps 727 mmHg 36%
13:00 +33°C° 0 mm 4 mps 727 mmHg 38%
14:00 +32°C° 0 mm 4 mps 727 mmHg 39%
15:00 +32°C° 0 mm 4 mps 726 mmHg 40%
16:00 +32°C° 0 mm 4 mps 726 mmHg 43%
17:00 +30°C° 0 mm 3 mps 726 mmHg 46%
18:00 +29°C° 0 mm 3 mps 725 mmHg 49%
19:00 +28°C° 0 mm 2 mps 725 mmHg 53%
20:00 +26°C° 0 mm 1 mps 725 mmHg 58%
21:00 +25°C° 0 mm 1 mps 726 mmHg 63%
22:00 +23°C° 0 mm 0 mps 725 mmHg 64%
23:00 +22°C° 0 mm 0 mps 725 mmHg 66%

Day after tomorrow, 6 July, Monday

Time Temperature Precipitation Wind Pressure Humidity
00:00 +22°C° 0 mm 0 mps 725 mmHg 67%
01:00 +21°C° 0 mm 0 mps 725 mmHg 65%
02:00 +21°C° 0 mm 0 mps 724 mmHg 62%
03:00 +23°C° 0 mm 1 mps 724 mmHg 60%
04:00 +24°C° 0 mm 1 mps 724 mmHg 56%
05:00 +23°C° 0 mm 0 mps 724 mmHg 52%
06:00 +23°C° 0 mm 0 mps 724 mmHg 48%
07:00 +27°C° 0 mm 1 mps 724 mmHg 41%
08:00 +29°C° 0 mm 1 mps 725 mmHg 34%
09:00 +31°C° 0 mm 1 mps 725 mmHg 28%
10:00 +32°C° 0 mm 2 mps 725 mmHg 26%
11:00 +34°C° 0 mm 3 mps 725 mmHg 25%
12:00 +35°C° 0 mm 4 mps 724 mmHg 23%
13:00 +35°C° 0 mm 4 mps 724 mmHg 24%
14:00 +35°C° 0 mm 4 mps 724 mmHg 25%
15:00 +35°C° 0 mm 4 mps 723 mmHg 27%
16:00 +34°C° 0 mm 4 mps 723 mmHg 30%
17:00 +31°C° 0 mm 3 mps 723 mmHg 33%
18:00 +30°C° 0 mm 3 mps 723 mmHg 37%
19:00 +29°C° 0 mm 2 mps 723 mmHg 42%
20:00 +27°C° 0 mm 1 mps 723 mmHg 48%
21:00 +26°C° 0 mm 1 mps 724 mmHg 53%
22:00 +25°C° 0 mm 1 mps 723 mmHg 55%
23:00 +23°C° 0 mm 0 mps 723 mmHg 57%

7 July, Tuesday

Time Temperature Precipitation Wind Pressure Humidity
00:00 +22°C° 0 mm 0 mps 723 mmHg 59%
01:00 +22°C° 0 mm 0 mps 723 mmHg 59%
02:00 +21°C° 0 mm 0 mps 723 mmHg 59%
03:00 +21°C° 0 mm 0 mps 722 mmHg 59%
04:00 +22°C° 0 mm 0 mps 722 mmHg 56%
05:00 +22°C° 0 mm 0 mps 723 mmHg 53%
06:00 +23°C° 0 mm 0 mps 723 mmHg 51%
07:00 +27°C° 0 mm 1 mps 723 mmHg 45%
08:00 +28°C° 0 mm 1 mps 723 mmHg 40%
09:00 +29°C° 0 mm 2 mps 724 mmHg 35%
10:00 +30°C° 0 mm 3 mps 724 mmHg 35%
11:00 +31°C° 0 mm 3 mps 724 mmHg 36%
12:00 +33°C° 0 mm 4 mps 724 mmHg 37%
13:00 +33°C° 0 mm 4 mps 723 mmHg 39%
14:00 +33°C° 0 mm 4 mps 723 mmHg 42%
15:00 +33°C° 0 mm 4 mps 723 mmHg 44%
16:00 +32°C° 0 mm 4 mps 723 mmHg 48%
17:00 +30°C° 0 mm 3 mps 722 mmHg 52%
18:00 +29°C° 0 mm 3 mps 722 mmHg 56%
19:00 +27°C° 0 mm 3 mps 723 mmHg 62%
20:00 +26°C° 0 mm 2 mps 723 mmHg 68%
21:00 +25°C° 0 mm 2 mps 724 mmHg 73%
22:00 +24°C° 0 mm 2 mps 724 mmHg 76%
23:00 +23°C° 0 mm 2 mps 724 mmHg 78%

8 July, Wednesday

Time Temperature Precipitation Wind Pressure Humidity
00:00 +23°C° 0 mm 1 mps 724 mmHg 81%
01:00 +23°C° 0 mm 1 mps 723 mmHg 81%
02:00 +22°C° 0 mm 1 mps 723 mmHg 81%
03:00 +22°C° 0 mm 1 mps 723 mmHg 81%
04:00 +22°C° 0 mm 1 mps 723 mmHg 79%
05:00 +22°C° 0 mm 1 mps 723 mmHg 76%
06:00 +23°C° 0 mm 2 mps 723 mmHg 74%
07:00 +24°C° 0 mm 2 mps 724 mmHg 66%
08:00 +26°C° 0 mm 3 mps 724 mmHg 57%
09:00 +28°C° 0 mm 3 mps 724 mmHg 49%
10:00 +29°C° 0 mm 4 mps 724 mmHg 47%
11:00 +30°C° 0 mm 4 mps 724 mmHg 44%
12:00 +32°C° 0 mm 5 mps 724 mmHg 42%
13:00 +30°C° 0 mm 4 mps 723 mmHg 43%
14:00 +30°C° 0 mm 4 mps 723 mmHg 44%
15:00 +30°C° 0 mm 4 mps 722 mmHg 45%
16:00 +29°C° 0 mm 4 mps 722 mmHg 46%
17:00 +28°C° 0 mm 3 mps 722 mmHg 47%
18:00 +28°C° 0 mm 3 mps 722 mmHg 47%
19:00 +27°C° 0.1 mm 3 mps 722 mmHg 52%
20:00 +25°C° 0.1 mm 2 mps 722 mmHg 57%
21:00 +24°C° 0.1 mm 1 mps 722 mmHg 62%
22:00 +23°C° 0 mm 1 mps 722 mmHg 65%
23:00 +23°C° 0 mm 1 mps 723 mmHg 67%

9 July, Thursday

Time Temperature Precipitation Wind Pressure Humidity
00:00 +22°C° 0 mm 1 mps 723 mmHg 69%
01:00 +22°C° 0 mm 1 mps 722 mmHg 70%
02:00 +22°C° 0 mm 1 mps 722 mmHg 71%
03:00 +21°C° 0 mm 1 mps 721 mmHg 72%
04:00 +21°C° 0 mm 1 mps 722 mmHg 72%
05:00 +22°C° 0 mm 1 mps 722 mmHg 71%
06:00 +21°C° 0 mm 2 mps 722 mmHg 71%
07:00 +24°C° 0 mm 1 mps 722 mmHg 63%
08:00 +25°C° 0 mm 1 mps 723 mmHg 55%
09:00 +27°C° 0 mm 1 mps 723 mmHg 46%
10:00 +29°C° 0 mm 2 mps 723 mmHg 42%
11:00 +30°C° 0 mm 2 mps 724 mmHg 37%
12:00 +33°C° 0 mm 3 mps 724 mmHg 32%
13:00 +31°C° 0 mm 3 mps 724 mmHg 36%
14:00 +32°C° 0 mm 4 mps 723 mmHg 39%
15:00 +32°C° 0 mm 5 mps 723 mmHg 43%
16:00 +30°C° 0 mm 4 mps 723 mmHg 48%
17:00 +29°C° 0 mm 4 mps 723 mmHg 54%
18:00 +28°C° 0 mm 3 mps 722 mmHg 60%
19:00 +27°C° 0 mm 2 mps 723 mmHg 65%
20:00 +26°C° 0 mm 1 mps 723 mmHg 71%
21:00 +25°C° 0 mm 1 mps 724 mmHg 76%
22:00 +24°C° 0 mm 1 mps 724 mmHg 78%
23:00 +24°C° 0 mm 1 mps 724 mmHg 80%
Show more